Location: Wildcat Hills Observatory
(41.6350°N, 103.6812°W)
Time: 23:29:42
(UTC-06:00)

Cosmos 1315 Rocket - Pass Details

Date: 23 June 2018
Orbit: 530 x 569 km, 81.2° (Epoch: 24 September)

Event Time Altitude Azimuth Distance (km) Brightness Sun altitude
Rises 21:13:49 0° 188° (S) 2,712 6.0 -7.0°
Reaches altitude 10° 21:15:58 10° 188° (S) 1,829 5.2 -7.3°
Maximum altitude 21:20:00 90° 140° (SE) 566 2.9 -7.8°
Drops below altitude 10° 21:24:08 10° 10° (N) 1,866 6.0 -8.4°
Sets 21:26:20 0° 10° (N) 2,772 6.9 -8.7°
